Location: Jasionna
(52.0364°N, 19.5524°E)
Time: 09:23:26
(UTC+00:00)

Daily predictions for brighter satellites

Satellite Brightness Start Highest point End
(mag) Time Altitude Azimuth Time Altitude Azimuth Time Altitude Azimuth
USA 215 3.9 19:24:59 10° E 19:31:24 59° N 19:37:48 10° WNW
Meteor 1-15 Rocket 4.5 19:26:26 10° N 19:32:23 69° ENE 19:38:16 10° SSE
CENTAUR R/B 3.7 19:25:51 10° NW 19:33:19 56° NNE 19:41:45 10° ESE
STARLINK-1240 3.7 19:31:20 10° SW 19:35:24 58° SSE 19:39:30 10° ENE
Cosmos 1437 Rocket 2.8 19:31:42 10° S 19:35:24 56° E 19:39:11 10° NNE
Meteor 1-4 Rocket 4.2 19:32:21 10° SW 19:35:33 35° WNW 19:38:48 10° N
ATLAS 3B R/B 3.9 19:30:11 10° NW 19:36:23 37° NNE 19:42:43 10° E
Lacrosse 5 3.4 19:33:08 10° WNW 19:37:19 27° SW 19:41:31 10° S
STARLINK-1206 3.8 19:33:56 10° W 19:38:05 81° N 19:42:16 10° E
NOSS 3-2 (C) 4.4 19:31:24 10° NW 19:38:28 60° NE 19:46:34 10° ESE
STARLINK-1114 3.8 19:34:29 10° WNW 19:38:34 59° SSW 19:42:39 10° SE
Cosmos 304 Rocket 4.1 19:34:11 10° S 19:38:45 46° ESE 19:43:20 10° NE
Cosmos 1378 4.4 19:35:52 10° SE 19:38:55 24° E 19:41:59 10° NE
STARLINK-1203 3.7 19:35:55 10° SW 19:40:03 62° SSE 19:44:13 10° ENE
STARLINK-1216 3.6 19:36:17 10° SW 19:40:22 61° SSE 19:44:29 10° ENE
ISS -1.4 19:39:04 10° WSW 19:40:53 14° SW 19:42:42 10° S
CZ-2C R/B 3.5 19:35:46 10° N 19:41:16 58° WNW 19:46:45 10° SW
STARLINK-1205 3.8 19:38:54 10° W 19:43:04 80° N 19:47:14 10° E
STARLINK-1130 (DARKSAT) 3.9 19:39:29 10° WNW 19:43:33 56° SSW 19:47:36 10° SE
STARLINK-1237 3.6 19:41:14 10° WSW 19:45:20 64° SSE 19:49:28 10° ENE
STARLINK-1218 3.8 19:43:55 10° W 19:48:04 79° N 19:52:14 10° E
STARLINK-1084 3.9 19:44:28 10° WNW 19:48:31 53° SSW 19:52:33 10° SE
Cosmos 1674 Rocket 3.6 19:44:33 10° S 19:48:55 70° E 19:53:20 10° NNE
Meteor 2-4 Rocket 4.3 19:43:58 10° SSW 19:49:15 59° WNW 19:54:35 10° N
STARLINK-1202 3.6 19:46:12 10° WSW 19:50:19 67° SSE 19:54:27 10° ENE
NOSS 2-2 (E) 3.9 19:47:49 10° S 19:51:06 34° ESE 19:54:50 10° ENE
Cosmos 1378 Rocket 3.7 19:47:32 10° S 19:51:51 59° E 19:56:10 10° NNE
EXPRESS MD2 4.2 19:49:07 10° SSW 19:52:11 34° SE 19:57:38 10° E
Cosmos 1833 Rocket 4.4 19:47:45 10° NW 19:52:20 26° WSW 19:56:55 10° SSW
SL-27 R/B 3.8 19:49:15 10° N 19:52:30 30° ENE 19:55:41 10° ESE
STARLINK-1254 3.8 19:48:53 10° W 19:53:02 78° N 19:57:13 10° E
STARLINK-1098 4.0 19:49:27 10° WNW 19:53:29 50° SSW 19:57:29 10° SE
Cosmos 1766 3.9 19:49:42 10° N 19:53:33 45° ENE 19:57:23 10° SSE
Cosmos 2297 3.8 19:50:28 10° SSW 19:56:02 59° ESE 20:01:40 10° NE
Cosmos 1943 Rocket 3.0 19:51:48 10° SSE 19:56:33 30° ESE 20:01:20 10° NE
Cosmos 1900 4.4 19:51:52 10° NW 19:56:55 88° NE 20:01:59 10° SE
STARLINK-1231 3.8 19:53:52 10° W 19:58:01 77° N 20:02:11 10° E
STARLINK-1123 4.1 19:54:26 10° WNW 19:58:26 48° SSW 20:02:19 11° SE
Cosmos 2082 Rocket 3.4 19:54:00 10° NW 19:59:12 37° WSW 20:04:21 10° S
STARLINK-1246 3.5 19:56:09 10° WSW 20:00:17 73° SSE 20:04:26 10° ENE
IGS 5A 3.8 19:56:25 10° S 20:00:32 64° WSW 20:04:41 10° NNW
Cosmos 1452 Rocket 4.0 19:57:26 10° SW 20:02:42 68° WNW 20:08:00 10° NNE
Cosmos 332 Rocket 4.0 19:58:01 10° SSW 20:02:55 80° WNW 20:07:51 10° NNE
STARLINK-1232 3.8 19:58:52 10° W 20:03:01 77° N 20:07:11 10° E
BREEZE-M DEB 3.9 20:00:47 10° SSW 20:03:02 23° SE 20:07:21 10° E
STARLINK-1097 4.1 19:59:27 10° WNW 20:03:25 45° SSW 20:07:07 11° SE
Landsat 7 4.2 19:58:49 10° S 20:03:32 64° WSW 20:08:18 10° NNW
STARLINK-1224 3.5 20:01:06 10° WSW 20:05:15 76° SSE 20:09:24 10° ENE
Meteor 1-23 Rocket 4.2 20:01:33 10° S 20:07:14 79° E 20:12:53 10° NNE
STARLINK-1208 3.8 20:03:50 10° W 20:07:59 77° N 20:12:09 10° E
STARLINK-1099 4.2 20:04:26 10° WNW 20:08:21 42° SSW 20:11:54 12° SE
Cosmos 1461 2.9 20:05:15 10° SW 20:09:26 80° SE 20:13:53 10° NE
SAR-Lupe-2 3.7 20:06:05 10° NNE 20:09:42 81° WNW 20:13:17 10° SSW
STARLINK-1225 3.5 20:06:05 10° WSW 20:10:14 79° SSE 20:14:24 10° ENE
Cosmos 1975 Rocket 3.9 20:07:29 11° SSE 20:11:22 35° E 20:15:23 10° NNE
Cosmos 2369 Rocket 3.1 20:07:40 10° SSE 20:12:28 29° ESE 20:17:16 10° NE
STARLINK-1271 3.8 20:08:51 10° W 20:13:01 76° N 20:17:10 10° E
STARLINK-1104 4.3 20:09:25 10° W 20:13:18 40° SSW 20:16:40 13° SE
STARLINK-1212 2.9 20:11:49 10° WNW 20:14:56 83° N 20:18:04 10° E
STARLINK-1230 3.6 20:11:03 10° WSW 20:15:12 82° SSE 20:19:22 10° ENE
STARLINK-1105 2.9 20:12:17 10° WNW 20:15:24 83° NNE 20:18:31 10° E
NOSS 2-2 (C) 3.5 20:12:11 10° SSW 20:15:37 45° SE 20:19:31 10° NE
STARLINK-1247 2.9 20:13:10 10° WNW 20:16:17 84° N 20:19:25 10° E
STARLINK-1227 2.9 20:13:39 10° WNW 20:16:46 84° N 20:19:53 10° E
STARLINK-1226 2.9 20:14:31 10° WNW 20:17:39 85° NNE 20:20:47 10° E
STARLINK-1154 3.8 20:13:50 10° W 20:17:59 76° N 20:22:09 10° E
STARLINK-1144 4.4 20:14:25 10° W 20:18:16 38° SSW 20:21:28 14° SSE
STARLINK-1215 2.9 20:15:25 10° WNW 20:18:33 85° NNE 20:21:41 10° E
SPOT 5 3.2 20:14:19 10° SSE 20:19:35 84° WSW 20:25:00 10° NNW
ATLAS 2AS CENTAUR R/B 4.0 20:13:32 10° SSE 20:19:49 26° ESE 20:26:05 10° ENE
NOSS 3-2 (A) 4.1 20:12:42 10° NW 20:20:03 79° SW 20:27:48 12° SE
STARLINK-1243 3.6 20:16:02 10° WSW 20:20:11 84° SSE 20:24:22 10° ENE
STARLINK-1217 2.9 20:17:14 10° WNW 20:20:22 86° NNE 20:23:30 10° ESE
STARLINK-1229 2.8 20:18:09 10° WNW 20:21:16 86° N 20:24:24 10° ESE
Meteor 1-22 Rocket 4.3 20:15:31 10° NNW 20:21:29 80° ENE 20:26:47 12° SSE
Cosmos 2026 Rocket 4.4 20:15:52 10° SSE 20:21:44 47° E 20:27:48 10° NNE
STARLINK-1270 2.8 20:19:02 10° WNW 20:22:10 87° NNE 20:25:18 10° ESE
STARLINK-1197 3.8 20:18:48 10° W 20:22:57 76° N 20:27:07 10° E
STARLINK-1103 4.5 20:19:24 10° W 20:23:12 35° SSW 20:26:14 15° SSE
STARLINK-1189 2.8 20:20:49 10° WNW 20:23:57 88° N 20:27:05 10° ESE
ERS-1 Rocket 3.2 20:19:49 10° S 20:24:49 67° WSW 20:29:52 10° NNW
STARLINK-1188 2.8 20:21:44 10° WNW 20:24:53 88° NNE 20:28:01 10° ESE
STARLINK-1236 3.6 20:20:59 10° WSW 20:25:09 87° SSE 20:29:20 10° ENE
STARLINK-1187 2.8 20:22:49 10° WNW 20:25:56 87° SSW 20:29:03 10° ESE
STARLINK-1191 2.8 20:24:11 10° WNW 20:27:18 89° E 20:30:25 10° ESE
STARLINK-1198 3.8 20:23:47 10° W 20:27:56 77° N 20:32:06 10° E
STARLINK-1221 2.8 20:25:08 10° WNW 20:28:15 89° SSE 20:31:21 10° ESE
STARLINK-1222 2.8 20:25:59 10° WNW 20:29:06 89° SW 20:32:12 10° ESE
Okean 2 3.6 20:25:56 12° S 20:29:40 56° E 20:33:46 10° NNE
STARLINK-1214 2.8 20:26:52 10° WNW 20:30:00 88° S 20:33:07 10° ESE
Cosmos 1066 Rocket 4.3 20:25:00 10° SSW 20:30:22 74° WNW 20:35:45 10° N
USA 238 DEB 4.0 20:24:47 10° NW 20:31:55 70° SW 20:38:25 14° SSE
USA 238 4.0 20:24:53 10° NW 20:32:02 71° SW 20:38:32 14° SSE
Cosmos 1953 4.1 20:29:00 10° NNE 20:32:04 21° ENE 20:35:00 11° ESE
STARLINK-1199 3.8 20:28:47 10° W 20:32:57 77° N 20:37:06 10° E
Okean 1 Rocket 4.1 20:28:54 10° NNW 20:33:09 43° W 20:37:20 10° SSW
Cosmos 968 Rocket 3.8 20:28:06 10° NNW 20:33:14 58° ENE 20:37:31 14° SE
Cosmos 1805 3.6 20:29:39 10° NNW 20:33:33 61° W 20:37:07 12° S
Cosmos 1470 3.5 20:30:05 10° N 20:33:45 39° ENE 20:36:30 16° SE
STARLINK-1228 3.1 20:30:57 10° WNW 20:34:27 77° SSW 20:37:42 12° ESE
STARLINK-1269 3.6 20:30:58 10° WSW 20:35:07 89° NNW 20:39:18 10° ENE
Resurs 01 Rocket 4.2 20:32:47 10° WSW 20:35:21 15° W 20:37:56 10° NW
Cosmos 2278 Rocket 4.1 20:31:04 10° WSW 20:36:11 33° NW 20:41:20 10° NNE
Nadezhda 4 Rocket 4.2 20:30:40 10° SSW 20:36:48 74° WNW 20:42:57 10° N
STARLINK-1235 2.9 20:34:34 10° WNW 20:37:48 76° SSW 20:40:37 13° ESE
STARLINK-1210 3.8 20:33:45 10° W 20:37:55 78° N 20:42:05 10° E
Cosmos 1455 Rocket 3.1 20:34:34 10° N 20:38:55 72° ENE 20:42:18 16° SSE
STARLINK-1200 3.6 20:35:56 10° WSW 20:40:05 87° NNW 20:44:16 10° ENE
STARLINK-1219 3.7 20:38:44 10° W 20:42:54 79° N 20:47:03 10° E
STARLINK-1192 3.7 20:40:56 10° W 20:45:05 85° N 20:49:16 10° ENE
Cosmos 1758 3.9 20:42:55 10° N 20:46:53 48° ENE 20:49:40 18° SE
ATLAS CENTAUR R/B 3.0 20:45:36 10° NW 20:47:02 19° N 20:48:38 10° ENE
STARLINK-1211 3.7 20:43:44 10° W 20:47:54 79° N 20:52:04 10° E
Terra 2.1 20:44:22 13° S 20:48:31 63° WSW 20:53:16 10° NNW
SL-4 R/B 3.3 20:45:35 10° SSW 20:49:37 27° SE 20:53:43 10° E
Cosmos 1110 Rocket 4.4 20:44:28 10° SW 20:49:38 66° WNW 20:54:48 10° NNE
STARLINK-1244 3.7 20:45:54 10° W 20:50:04 83° N 20:54:14 10° E
Abrixas rocket 4.4 20:50:51 10° SW 20:51:36 11° SSW 20:51:50 11° SSW
Cosmos 1842 3.2 20:48:51 15° S 20:51:59 73° E 20:55:53 10° NNE
STARLINK-1245 3.7 20:48:43 10° W 20:52:53 81° N 20:57:02 10° E
Cosmos 1503 Rocket 4.3 20:47:46 10° NNW 20:53:03 63° ENE 20:57:15 16° SE
ERBS 4.0 20:51:14 10° WNW 20:54:20 35° N 20:57:27 10° ENE
STARLINK-1138 3.7 20:50:54 10° W 20:55:03 82° N 20:59:13 10° E
STARLINK-1234 3.0 20:52:20 10° WNW 20:55:35 61° SSW 20:57:44 19° SE
STARLINK-1233 3.7 20:53:40 10° W 20:57:50 82° N 21:02:00 10° E
STARLINK-1143 3.7 20:55:51 10° W 21:00:01 81° N 21:04:11 10° E
STARLINK-1209 3.1 20:58:18 10° WNW 21:01:33 55° SSW 21:03:26 22° SE
Cosmos 2263 4.5 20:57:25 14° S 21:01:58 48° ESE 21:07:21 10° NE
STARLINK-1204 3.7 20:58:40 10° W 21:02:50 83° N 21:06:59 10° E
STARLINK-1241 3.7 21:00:53 10° W 21:05:03 79° N 21:09:12 10° E
Cosmos 1733 4.3 21:03:00 10° NNW 21:06:34 38° W 21:09:32 14° SSW
STARLINK-1238 3.6 21:03:40 10° WNW 21:07:50 85° N 21:12:00 10° E
STARLINK-1239 3.7 21:05:51 10° W 21:10:01 79° N 21:14:11 10° E
Cosmos 1536 Rocket 4.1 21:08:36 21° SSE 21:11:08 43° E 21:15:17 10° NNE
Cosmos 1354 Rocket 4.1 21:07:02 10° NNW 21:12:22 77° ENE 21:16:12 19° SSE
Meteor 1-21 4.2 21:07:51 15° S 21:12:37 79° E 21:18:15 10° NNE
STARLINK-1201 3.6 21:08:38 10° WNW 21:12:48 87° NNE 21:16:58 10° ESE
COSMOS 2455 3.8 21:09:44 18° SSE 21:12:57 29° ESE 21:18:04 10° NE
JB-3 4.4 21:09:23 10° NNE 21:13:35 84° ESE 21:16:37 18° SSW
USA 215 3.4 21:07:36 10° ESE 21:14:12 82° NNE 21:20:46 10° WNW
Cosmos 1486 Rocket 4.3 21:09:17 10° NNW 21:14:30 59° WSW 21:18:13 19° S
STARLINK-1240 3.7 21:10:49 10° W 21:14:59 78° N 21:19:09 10° E
Cosmos 1833 4.2 21:09:29 10° NNW 21:15:10 83° WSW 21:19:13 20° SSE
Cosmos 1544 Rocket 3.7 21:11:23 10° NNW 21:15:42 69° W 21:18:39 20° S
MTI 4.4 21:13:24 10° N 21:16:29 52° WNW 21:18:58 14° SW
Cosmos 1302 Rocket 4.2 21:11:11 10° SSW 21:16:29 79° WNW 21:21:50 10° NNE
Cosmos 1271 Rocket 2.8 21:14:22 22° S 21:16:42 62° E 21:20:36 10° NNE
Cosmos 2297 Rocket 4.2 21:12:58 10° NNW 21:17:33 24° NE 21:22:05 10° E
Spot 4 4.0 21:14:22 20° SSE 21:17:43 72° ENE 21:22:34 10° NNW
STARLINK-1206 3.6 21:13:38 10° WNW 21:17:48 89° NNE 21:21:58 10° ESE
Cosmos 1242 Rocket 2.5 21:15:26 20° SSW 21:17:55 90° ESE 21:21:38 10° NNE
STARLINK-1203 3.8 21:15:39 10° W 21:19:52 77° N 21:24:06 10° E
STARLINK-1216 3.8 21:15:48 10° W 21:19:58 77° N 21:24:07 10° E
STARLINK-60 3.5 21:20:10 24° SSW 21:21:27 34° SSE 21:24:24 10° E
STARLINK-1205 3.6 21:18:36 10° WNW 21:22:46 89° SSW 21:26:56 10° ESE
NOSS 2-2 (D) 4.0 21:20:30 10° WSW 21:24:05 55° NW 21:28:23 10° NE
CENTAUR R/B 3.3 21:16:38 10° NW 21:24:28 64° SW 21:31:08 18° SSE
STARLINK-1237 3.8 21:20:47 10° W 21:24:57 77° N 21:29:07 10° E
Lacrosse 4 Rocket 4.3 21:24:03 10° NNW 21:26:34 15° NNE 21:29:02 10° ENE
Cosmos 1707 2.8 21:24:35 24° S 21:26:47 65° E 21:30:39 10° NNE
SL-27 R/B 4.0 21:24:28 10° NW 21:27:32 26° WSW 21:29:28 16° SSW
STARLINK-1218 3.5 21:23:36 10° WNW 21:27:46 87° SSW 21:31:56 10° ESE
ATLAS 3B R/B 2.7 21:21:06 10° NW 21:27:53 86° NE 21:33:56 15° SE
Helios 1A 4.5 21:24:58 13° ESE 21:27:58 28° ENE 21:31:33 10° N
NOSS 3-2 (C) 4.4 21:22:24 10° NW 21:29:37 54° SW 21:35:37 19° SSE
STARLINK-1202 3.8 21:25:47 10° W 21:29:57 76° N 21:34:06 10° E
Cosmos 1726 2.2 21:27:13 10° N 21:30:56 65° ENE 21:32:50 26° SSE
Meteor 1-16 Rocket 4.3 21:26:41 10° N 21:32:14 67° ENE 21:35:51 21° SSE
STARLINK-1254 3.5 21:28:34 10° WNW 21:32:44 84° SSW 21:36:54 10° ESE
ALOS 2 3.1 21:30:24 20° SE 21:33:11 51° ENE 21:37:28 10° N
Cosmos 1867 3.7 21:29:10 10° NW 21:34:35 65° SW 21:38:07 22° SSE
COSMOS 2487 2.4 21:31:54 10° NNW 21:35:24 78° ENE 21:37:03 29° SSE
NOSS 5 (C) 4.3 21:34:02 10° NW 21:37:07 80° NE 21:39:14 23° SE
STARLINK-1231 3.5 21:33:33 10° WNW 21:37:42 82° SSW 21:41:51 10° ESE
STARLINK-1246 3.8 21:35:46 10° W 21:39:56 76° N 21:44:06 10° E
Cosmos 1992 Rocket 4.0 21:36:08 18° SSW 21:39:59 73° ESE 21:45:13 10° NNE
Cosmos 1943 Rocket 2.8 21:34:30 10° SW 21:39:59 58° NW 21:45:34 10° NNE
SeaSat 1 2.6 21:36:29 10° NE 21:41:22 56° ESE 21:44:34 21° S
NOSS 3-4 (A) 3.5 21:36:32 14° SSW 21:41:32 56° SE 21:47:46 10° NE
NOSS 3-4 (C) 3.5 21:36:40 14° SSW 21:41:39 55° SE 21:47:53 10° NE
Cosmos 1606 Rocket 4.3 21:37:47 10° N 21:41:55 43° ENE 21:44:29 21° SE
EO 1 Del DPAF 3.1 21:38:29 10° NNE 21:42:18 89° SE 21:44:29 24° SSW
STARLINK-1232 3.5 21:38:32 10° WNW 21:42:42 79° SSW 21:46:40 11° ESE
STARLINK-1224 3.8 21:40:45 10° W 21:44:55 77° N 21:49:04 10° E
STARLINK-1208 3.5 21:43:30 10° WNW 21:47:39 76° SSW 21:51:25 12° ESE
Cosmos 2315 Rocket 4.2 21:41:39 10° N 21:47:50 64° ENE 21:52:08 21° SSE
STARLINK-1225 3.7 21:45:45 10° W 21:49:55 77° N 21:54:04 10° E
STARLINK-1212 3.6 21:47:44 10° W 21:50:36 33° SSW 21:50:47 33° SSW
Meteor 2-10 4.1 21:45:35 10° NNW 21:50:37 68° W 21:53:43 23° S
STARLINK-1105 3.6 21:48:13 10° W 21:51:03 33° SSW 21:51:13 33° SSW
STARLINK-29 3.8 21:51:41 31° SE 21:51:41 31° SE 21:54:15 10° E
STARLINK-1247 3.6 21:49:06 10° W 21:51:56 33° SSW 21:52:06 32° SSW
STARLINK-1227 3.6 21:49:35 10° W 21:52:26 32° SSW 21:52:32 32° SSW
STARLINK-1271 3.5 21:48:31 10° WNW 21:52:40 73° SSW 21:56:14 14° ESE
Cosmos 292 Rocket 4.3 21:48:20 10° SW 21:53:05 61° WNW 21:57:55 10° NNE
STARLINK-1226 3.7 21:50:27 10° W 21:53:18 32° SSW 21:53:23 32° SSW
BREEZE-M DEB (TANK) 3.0 21:43:31 10° WSW 21:53:25 65° S 21:56:33 10° E
BREEZE-M DEB (TANK) 3.1 21:50:23 10° W 21:53:50 49° SSW 21:58:06 10° ESE
S3M 4.2 21:47:44 10° NNW 21:53:50 67° W 21:58:10 20° S
STARLINK-1215 3.7 21:51:21 10° W 21:54:11 32° SSW 21:54:16 32° SSW
Cosmos 2227 Rocket 3.7 21:49:41 10° NNW 21:54:48 33° NE 21:59:53 10° ESE
STARLINK-1230 3.7 21:50:44 10° W 21:54:54 78° N 21:59:03 10° E
RESURS DK-1 3.7 21:53:56 22° SE 21:55:03 24° ESE 21:58:26 10° NE
STARLINK-1217 3.7 21:53:10 10° W 21:55:59 31° SSW 21:56:00 31° SSW
Cosmos 2369 Rocket 2.7 21:50:34 10° SW 21:56:10 60° NW 22:01:47 10° NNE
STARLINK-1229 3.8 21:54:05 10° W 21:56:53 30° SSW 21:56:53 30° SSW
STARLINK-1154 3.5 21:53:29 10° WNW 21:57:38 70° SSW 22:01:00 15° ESE
STARLINK-1270 3.8 21:55:00 10° W 21:57:45 30° SSW 21:57:45 30° SSW
STARLINK-1189 3.9 21:56:48 10° W 21:59:29 29° SW 21:59:29 29° SW
STARLINK-1243 3.7 21:55:43 10° W 21:59:54 78° N 22:04:03 10° E
STARLINK-1188 3.9 21:57:42 10° W 22:00:22 29° SW 22:00:22 29° SW
Cosmos 1340 Rocket 3.0 21:56:27 10° NNW 22:00:29 64° W 22:02:31 28° S
STARLINK-1187 4.1 21:58:51 10° W 22:01:14 26° SW 22:01:14 26° SW
ATLAS CENTAUR R/B 1.5 21:59:35 24° SSW 22:01:58 57° SE 22:05:59 10° NE
Aureole 3 2.6 21:59:04 10° NNW 22:02:23 83° W 22:03:24 39° S
STARLINK-1197 3.5 21:58:27 10° WNW 22:02:34 67° SSW 22:05:46 16° ESE
STARLINK-1191 4.0 22:00:10 10° W 22:02:39 27° SW 22:02:39 27° SW
Cosmos 1626 4.0 22:01:28 16° ESE 22:02:54 20° E 22:05:40 10° NE
Thor Agena Rocket 3.9 21:57:42 10° NNE 22:02:58 67° WNW 22:07:11 16° SSW
STARLINK-1221 4.0 22:01:08 10° W 22:03:34 27° SW 22:03:34 27° SW
STARLINK-1222 4.0 22:01:59 10° W 22:04:23 27° SW 22:04:23 27° SW
STARLINK-1236 3.7 22:00:42 10° W 22:04:51 79° N 22:09:01 10° E
STARLINK-1214 4.1 22:02:53 10° W 22:05:15 26° SW 22:05:15 26° SW
Cosmos 1908 3.2 22:01:46 10° N 22:05:36 75° E 22:07:21 30° SSE
Cosmos 1025 Rocket 3.6 22:02:58 18° SW 22:05:56 51° WNW 22:10:10 10° N
Nimbus 7 Rocket 4.5 21:59:52 10° NNE 22:05:59 74° ESE 22:10:05 22° S
STARLINK-1198 3.6 22:03:26 10° WNW 22:07:32 64° SSW 22:10:32 18° SE
EXPRESS MD2 4.4 22:03:10 10° W 22:07:44 75° S 22:17:39 10° E
Meteor 2-19 Rocket 4.4 22:03:37 21° S 22:07:54 89° E 22:14:04 10° N
Cosmos 1953 3.0 22:04:53 10° NNW 22:08:43 45° W 22:10:41 24° SSW
BREEZE M DEB (TANK) 3.0 22:07:07 10° WSW 22:08:33 26° WSW 22:08:33 26° WSW
Cosmos 1656 Rocket 3.7 22:04:50 14° SSW 22:09:42 82° WNW 22:15:18 10° NNE
ATLAS 2AS CENTAUR R/B 3.0 22:01:56 10° SW 22:09:57 83° SE 22:17:53 10° NE
BREEZE-M DEB (TANK) 4.4 22:00:56 10° WNW 22:10:08 32° SW 22:11:56 24° S
STARLINK-1199 3.6 22:08:26 10° WNW 22:12:32 61° SSW 22:15:20 19° SE
STARLINK-1269 3.7 22:10:40 10° W 22:14:50 81° N 22:19:00 10° E
Cosmos 2292 Rocket 2.9 22:13:24 30° SSW 22:15:00 78° W 22:18:09 10° N
STARLINK-1210 3.6 22:13:24 10° WNW 22:17:30 58° SSW 22:20:06 21° SE
FALCON 9 R/B 4.4 22:19:35 14° SE 22:19:35 14° SE 22:22:48 10° ESE
KORONAS-FOTON 3.8 22:17:21 32° S 22:19:00 68° E 22:22:51 10° NNE
STARLINK-1200 3.6 22:15:38 10° W 22:19:48 83° N 22:23:58 10° E
Cosmos 1655 Rocket 4.4 22:15:01 17° SSW 22:19:55 61° WNW 22:26:10 10° N
Cosmos 1777 Rocket 4.0 22:14:54 10° NNW 22:20:09 80° WSW 22:23:19 25° SSE
SL-4 R/B 1.9 22:20:18 28° W 22:20:18 28° W 22:22:09 10° NW
STARLINK-1219 3.7 22:18:22 10° WNW 22:22:27 55° SSW 22:24:52 22° SE
ATLAS 5 CENTAUR R/B 0.8 22:21:46 17° SW 22:24:06 82° SE 22:26:10 10° NE
STARLINK-1192 3.6 22:20:38 10° W 22:24:48 84° N 22:28:58 10° E
Cosmos 2228 3.0 22:22:16 10° NNW 22:26:32 75° W 22:28:36 29° S
STARLINK-52 3.1 22:26:28 41° SSW 22:27:04 48° SSE 22:30:12 10° E
Cosmos 1892 Rocket 4.0 22:25:06 27° SSE 22:27:13 51° E 22:31:28 10° NNE
Cosmos 1726 Rocket 3.5 22:22:58 10° N 22:27:19 88° W 22:29:30 29° S
STARLINK-1211 3.7 22:23:23 10° WNW 22:27:25 52° SSW 22:29:40 24° SE
SL-4 R/B 2.3 22:24:06 10° WSW 22:28:54 67° SSE 22:33:42 10° E
STARLINK-1244 3.6 22:25:37 10° WNW 22:29:46 86° N 22:33:56 10° E
ERBS 3.7 22:27:58 10° WNW 22:31:09 40° NNE 22:34:19 10° E
Cosmos 1300 3.3 22:27:53 10° N 22:31:37 50° ENE 22:33:33 25° SE
STARLINK-1245 3.8 22:28:21 10° WNW 22:32:22 50° SSW 22:34:26 25° SE
Cosmos 921 Rocket 3.7 22:31:52 26° SSE 22:33:40 40° ESE 22:37:46 10° NE
In-Cosmos 22 4.4 22:30:05 20° SSW 22:33:45 62° WNW 22:39:00 10° N
YAOGAN 11 4.0 22:31:51 27° SSE 22:34:10 89° ENE 22:38:31 10° NNW
STARLINK-1138 3.6 22:30:36 10° WNW 22:34:46 88° NNE 22:38:55 10° ESE
STARLINK-1344 4.5 22:35:54 21° ESE 22:35:54 21° ESE 22:37:36 10° E
STARLINK-1343 4.5 22:36:13 21° ESE 22:36:13 21° ESE 22:37:56 10° E
STARLINK-1346 4.4 22:36:30 22° ESE 22:36:30 22° ESE 22:38:19 10° E
STARLINK-1328 4.4 22:36:54 22° ESE 22:36:54 22° ESE 22:38:38 10° E
Meteor 1-24 Rocket 4.0 22:33:05 24° SSE 22:36:10 54° E 22:41:31 10° NNE
STARLINK-1354 4.4 22:37:13 22° ESE 22:37:13 22° ESE 22:38:58 10° E
STARLINK-1347 4.4 22:37:33 22° ESE 22:37:33 22° ESE 22:39:19 10° E
STARLINK-1357 4.4 22:37:53 22° ESE 22:37:53 22° ESE 22:39:40 10° E
STARLINK-1233 3.8 22:33:19 10° WNW 22:37:19 47° SSW 22:39:12 27° SSE
STARLINK-1335 4.4 22:38:12 22° ESE 22:38:12 22° ESE 22:40:00 10° E
STARLINK-1327 4.4 22:38:30 23° ESE 22:38:30 23° ESE 22:40:19 10° E
STARLINK-1340 4.4 22:38:51 23° ESE 22:38:51 23° ESE 22:40:41 10° E
Cosmos 2266 Rocket 4.3 22:33:43 18° SSW 22:38:10 59° WNW 22:44:10 10° N
CZ-4C R/B 4.0 22:36:20 12° SE 22:38:18 14° ESE 22:41:05 10° ENE
STARLINK-1356 4.4 22:39:10 23° ESE 22:39:10 23° ESE 22:41:01 10° E
STARLINK-1345 4.3 22:39:28 23° ESE 22:39:28 23° ESE 22:41:19 10° E
STARLINK-1355 4.3 22:39:47 23° ESE 22:39:47 23° ESE 22:41:40 10° E
STARLINK-1371 4.4 22:39:09 28° SE 22:39:09 28° SE 22:42:23 10° E
STARLINK-1321 4.3 22:40:09 23° ESE 22:40:09 23° ESE 22:42:03 10° E
STARLINK-1358 4.3 22:40:29 24° ESE 22:40:29 24° ESE 22:42:23 10° E
STARLINK-1143 3.5 22:35:33 10° WNW 22:39:44 90° SE 22:43:53 10° ESE
STARLINK-1332 4.3 22:40:48 24° ESE 22:40:48 24° ESE 22:42:43 10° E
STARLINK-1348 4.3 22:41:05 24° ESE 22:41:05 24° ESE 22:43:01 10° E
STARLINK-1330 4.3 22:41:27 24° ESE 22:41:27 24° ESE 22:43:24 10° E
Cosmos 1437 3.9 22:40:11 25° ESE 22:40:53 28° E 22:43:32 10° NNE
STARLINK-1363 4.3 22:41:46 24° ESE 22:41:46 24° ESE 22:43:45 10° E
STARLINK-1337 4.2 22:42:06 24° ESE 22:42:06 24° ESE 22:44:05 10° E
STARLINK-1342 4.2 22:42:25 24° ESE 22:42:25 24° ESE 22:44:25 10° E
Resurs 1-4 Rocket 4.5 22:40:23 10° ENE 22:41:44 11° E 22:43:05 10° E
STARLINK-1364 4.2 22:42:45 25° ESE 22:42:45 25° ESE 22:44:46 10° E
STARLINK-1204 3.9 22:38:19 10° WNW 22:42:17 44° SSW 22:43:59 28° SSE
STARLINK-1376 4.2 22:43:04 25° ESE 22:43:04 25° ESE 22:45:05 10° E
STARLINK-1341 4.3 22:42:21 29° SSE 22:42:27 29° SE 22:45:44 10° E
STARLINK-1360 4.2 22:43:23 25° ESE 22:43:23 25° ESE 22:45:26 10° E
STARLINK-1361 4.2 22:43:43 25° ESE 22:43:43 25° ESE 22:45:46 10° E
STARLINK-1367 4.2 22:44:00 26° SE 22:44:00 26° SE 22:46:08 10° E
SJ 16-02 2.4 22:39:11 10° NNW 22:43:24 41° ENE 22:47:12 12° SE
STARLINK-1366 4.1 22:44:22 26° ESE 22:44:22 26° ESE 22:46:28 10° E
STARLINK-1241 3.5 22:40:35 10° WNW 22:44:44 88° SSW 22:48:54 10° ESE
STARLINK-1339 4.2 22:45:38 29° SE 22:45:38 29° SE 22:48:45 10° E
STARLINK-1374 4.2 22:45:33 30° SSE 22:45:45 30° SE 22:49:06 10° E
STARLINK-1238 4.0 22:43:20 10° WNW 22:47:16 42° SSW 22:48:48 29° SSE
Helios 1B rocket 3.3 22:44:22 10° NNE 22:48:15 39° E 22:50:09 24° SSE
STARLINK-1239 3.5 22:45:33 10° WNW 22:49:43 85° SSW 22:53:52 10° ESE
Cosmos 1674 3.2 22:48:20 25° SW 22:50:12 50° WNW 22:53:55 10° N
STARLINK-1201 4.1 22:48:19 10° W 22:52:12 39° SSW 22:53:33 30° S
STARLINK-1377 4.1 22:52:00 32° SSE 22:52:27 33° SSE 22:55:53 10° E
STARLINK-1240 3.5 22:50:31 10° WNW 22:54:40 83° SSW 22:58:49 10° ESE
Cosmos 1244 Rocket 4.5 22:51:03 23° S 22:55:05 83° E 23:01:16 10° NNE
CZ-2D R/B 4.3 22:53:04 10° NE 22:55:38 14° E 22:58:12 10° ESE
STARLINK-1353 4.0 22:55:17 33° SSE 22:55:50 34° SSE 22:59:18 10° E
STARLINK-1206 4.1 22:53:20 10° W 22:57:11 37° SSW 22:58:21 30° S
STARLINK-60 2.9 22:54:13 10° W 22:57:24 83° NNW 23:00:37 10° ENE
USA 215 3.6 22:52:57 18° SSE 22:57:33 46° SW 23:03:49 10° WNW
Cosmos 2219 3.2 22:52:25 10° NNW 22:58:08 86° WSW 23:02:17 19° SSE
COSMOS 2455 3.1 22:52:50 12° SW 22:58:28 70° NW 23:04:32 10° NE
STARLINK-1375 4.0 22:58:33 33° S 22:59:14 36° SSE 23:02:44 10° E
STARLINK-1216 3.5 22:55:29 10° WNW 22:59:38 80° SSW 23:03:47 10° ESE
Cosmos 1745 Rocket 4.5 22:55:32 20° SSE 22:59:39 50° E 23:05:32 10° NNE
STARLINK-1203 3.5 22:55:34 10° WNW 22:59:46 80° SSW 23:03:59 10° ESE
GEOS 3 Rocket 4.4 22:56:15 10° ESE 23:01:20 54° NE 23:06:32 10° NW
STARLINK-1205 4.2 22:58:19 10° W 23:02:07 35° SW 23:03:07 30° S
Cosmos 2297 Rocket 2.2 22:56:43 10° NNW 23:02:26 86° ENE 23:07:00 16° SSE
STARLINK-1352 3.9 23:01:56 34° S 23:02:30 36° SSE 23:05:52 10° E
STARLINK-1350 3.9 23:01:49 33° S 23:02:37 38° SSE 23:06:09 10° E
Helios 1A 3.8 23:01:35 25° SSW 23:03:25 38° W 23:07:21 10° NNW
STARLINK-1237 3.5 23:00:28 10° WNW 23:04:38 77° SSW 23:08:46 10° ESE
PSLV R/B 3.9 23:01:05 10° NNE 23:05:35 58° E 23:07:53 26° S
Lacrosse 4 Rocket 2.5 23:02:08 10° NNW 23:06:22 45° NE 23:10:27 10° ESE
STARLINK-1218 4.3 23:03:20 10° W 23:07:05 33° SW 23:07:55 30° S
STARLINK-1368 3.8 23:08:27 33° S 23:09:31 41° SSE 23:13:06 10° E
Timation 2 Rocket 4.5 23:03:39 10° NW 23:09:33 42° WSW 23:12:54 23° SSW
STARLINK-1202 3.5 23:05:27 10° WNW 23:09:36 74° SSW 23:13:44 10° ESE
Cosmos 2058 Rocket 3.4 23:05:25 10° NNW 23:09:45 53° W 23:11:58 26° SSW
ALOS 2 4.3 23:07:47 16° SW 23:09:48 22° W 23:13:15 10° NW
Cosmos 1455 3.7 23:06:42 10° N 23:10:04 30° ENE 23:12:54 13° SE
Meteor 2-10 Rocket 4.3 23:05:11 10° N 23:10:16 47° ENE 23:14:39 13° SE
Cosmos 1937 Rocket 4.3 23:06:52 10° NNW 23:12:00 51° ENE 23:17:08 10° SE
STARLINK-1254 4.4 23:08:20 10° W 23:12:01 31° SW 23:12:41 29° SSW
Cosmos 2082 4.2 23:06:39 10° NNW 23:12:17 59° NE 23:17:50 10° SE
Meteor 1-29 3.7 23:09:17 10° NNE 23:12:30 39° E 23:13:48 27° SSE
Cosmos 1898 Rocket 3.8 23:07:29 10° NNW 23:12:50 67° ENE 23:17:36 13° SE
STARLINK-1369 3.7 23:11:47 32° SSW 23:12:58 43° SSE 23:16:35 10° E
Cosmos 1626 Rocket 3.9 23:11:50 25° SSE 23:14:09 55° E 23:18:26 10° NNE
STARLINK-1372 3.7 23:15:07 31° SSW 23:16:26 45° SSE 23:20:05 10° ENE
STARLINK-1231 4.5 23:13:20 10° W 23:16:57 29° SW 23:17:27 28° SSW
Starlink 7 placeholder 2.3 23:17:57 57° NNE 23:17:57 57° NNE 23:19:46 10° E
Meteor 2-5 Rocket 4.0 23:14:12 21° SSW 23:17:56 60° WNW 23:23:33 10° N
ATLAS 3B R/B 3.7 23:12:23 10° WNW 23:17:58 28° WSW 23:21:10 20° SSW
SeaSat 1 3.9 23:14:18 10° NNE 23:18:43 33° NW 23:23:05 10° WSW
STARLINK-1246 3.5 23:15:26 10° WNW 23:19:33 68° SSW 23:23:41 10° ESE
STARLINK-1378 3.6 23:18:28 30° SSW 23:19:55 47° SSE 23:23:35 10° ENE
SL-14 R/B 3.4 23:19:11 28° SSW 23:21:03 63° WNW 23:24:54 10° N
FALCON 9 DEB 3.0 23:20:07 19° WSW 23:22:27 74° SSE 23:25:55 10° ENE
IRAS Rocket 4.4 23:18:20 16° SSE 23:22:53 76° ENE 23:28:26 10° NNW
STARLINK-1379 3.6 23:21:51 29° SSW 23:23:25 49° SSE 23:27:07 10° ENE
STARLINK-1224 3.5 23:20:24 10° WNW 23:24:31 65° SSW 23:28:38 10° ESE
STARLINK-1329 3.6 23:23:14 28° SSW 23:24:52 50° SSE 23:28:35 10° ENE
SL-16 R/B 3.4 23:20:31 10° SE 23:26:23 48° ENE 23:32:18 10° N
STARLINK-29 2.9 23:24:04 10° W 23:27:18 86° N 23:30:30 10° ENE
STARLINK-1362 3.5 23:26:40 27° SW 23:28:27 52° SSE 23:32:09 10° ENE
Cosmos-2242 4.2 23:24:43 10° N 23:28:42 37° ENE 23:32:30 11° SE
ATLAS CENTAUR R/B 1.5 23:26:45 10° WNW 23:29:02 44° SSW 23:33:23 10° SE
STARLINK-1225 3.5 23:25:24 10° WNW 23:29:30 62° SSW 23:33:36 10° ESE
Cosmos 1656 4.0 23:27:52 22° S 23:31:21 54° ESE 23:36:49 10° NE
STARLINK-1373 3.5 23:30:05 26° SW 23:32:00 54° SSE 23:35:46 10° ENE
NOSS 3-4 (A) 4.4 23:26:41 10° WSW 23:32:35 49° NNW 23:39:01 10° NE
NOSS 3-4 (C) 4.4 23:26:46 10° WSW 23:32:41 49° NNW 23:39:07 10° NE
RESURS DK-1 3.1 23:29:48 16° WSW 23:32:52 47° NW 23:36:53 10° NNE
STARLINK-1365 3.5 23:31:12 24° SW 23:33:14 56° SSE 23:37:01 10° ENE
STARLINK-1230 3.6 23:30:22 10° WNW 23:34:28 59° SSW 23:38:32 10° SE
STARLINK-1390 3.5 23:33:35 24° SW 23:35:38 56° SSE 23:39:22 10° ENE
Cosmos 1812 Rocket 3.5 23:31:34 10° N 23:36:05 90° WSW 23:38:55 22° S
Cosmos 1697 Rocket 3.7 23:32:47 18° SSE 23:36:22 35° ESE 23:41:29 10° NE
Cosmos 2084 3.7 23:33:37 16° SW 23:37:06 72° NW 23:41:36 10° NE
Cosmos 1626 3.0 23:36:00 22° SW 23:37:55 38° WNW 23:41:27 10° N
BREEZE-M R/B 3.4 23:32:32 10° SW 23:38:28 44° SSE 23:41:41 10° E
Cosmos 990 Rocket 4.0 23:33:47 10° NNW 23:39:05 79° WSW 23:43:10 17° SSE
DELTA 2 DEB (DPAF) 4.4 23:35:37 16° SSE 23:39:09 68° ENE 23:43:37 10° N
Cosmos 2227 Rocket 2.3 23:33:39 10° NW 23:39:16 63° WSW 23:43:29 18° S
STARLINK-1243 3.6 23:35:22 10° WNW 23:39:27 56° SSW 23:43:30 10° SE
Okean 1-7 Rocket 4.5 23:37:39 19° SW 23:40:26 41° WNW 23:44:45 10° N
CZ-4 R/B 4.0 23:36:02 10° N 23:40:48 65° WNW 23:43:50 22° SSW
ATLAS CENTAUR R/B 3.0 23:37:18 10° W 23:41:06 31° NNW 23:44:41 10° NNE
STARLINK-1236 3.7 23:40:20 10° WNW 23:44:23 53° SSW 23:48:26 10° SE
USA 81 4.3 23:42:28 18° SSE 23:46:18 63° E 23:51:32 10° NNE
Alouette 2 Rocket 4.0 23:41:24 10° NNW 23:47:23 76° ENE 23:50:43 16° SSE
Cosmos 1709 Rocket 4.2 23:44:10 18° S 23:48:50 64° E 23:54:56 10° NNE
Cosmos 1602 Rocket 3.5 23:47:23 24° SSW 23:49:57 86° W 23:54:19 10° N
SL-08 ROCKET BODY 4.4 23:46:46 21° SSW 23:50:51 77° WNW 23:56:44 10° N
Cosmos 2285 Rocket 4.1 23:46:30 10° NNW 23:52:57 84° ENE 23:59:17 10° SSE
STARLINK-1269 3.8 23:50:19 10° WNW 23:54:20 48° SSW 23:58:19 10° SE
